Wind_Speed
28 25 22 20 18 16 15 13 12 12 11 10 9 9 8 8 7 5 4 3 3 3 3 2 2 2 2 2 1 1 1 1 2 2 3 4 5 6 7 8 9 10 11
31 28 25 23 21 18 17 15 14 13 12 12 11 10 9 9 8 7 6 5 4 3 3 2 2 2 2 2 1 1 2 2 2 3 4 5 5 6 7 8 9 10 12
32 30 27 25 23 20 18 17 16 15 14 13 12 11 11 10 9 8 7 6 5 4 4 3 3 3 3 2 2 2 3 3 4 4 5 5 6 7 8 9 10 11 12
34 32 29 27 25 23 20 19 17 16 16 15 14 13 12 11 10 9 8 7 6 6 5 5 4 4 4 3 3 4 4 4 5 5 6 6 7 8 9 10 11 12 13
36 34 31 29 27 25 23 21 20 18 17 17 16 15 14 13 12 11 10 9 8 7 7 6 6 5 5 5 5 5 5 6 6 6 7 8 8 9 10 11 12 13 14
38 36 33 31 29 27 25 23 21 20 19 18 18 16 15 14 13 12 11 10 10 9 8 8 7 7 6 7 6 7 7 7 7 8 8 9 10 11 12 13 13 14 15
40 38 35 33 31 29 26 25 23 22 21 20 19 18 17 16 15 14 13 12 11 10 9 9 9 8 8 8 8 8 8 9 9 10 10 11 12 12 14 14 15 16 17
42 40 37 35 33 31 28 26 25 24 23 22 20 19 19 18 16 15 14 14 13 12 11 11 10 10 10 10 10 10 10 11 11 12 12 13 14 14 15 16 17 18 19
44 42 39 37 35 33 30 28 27 25 24 24 22 21 20 19 18 17 16 15 15 14 13 13 12 12 12 12 12 12 12 13 13 14 14 15 16 16 17 18 19 20 21
45 43 41 39 37 35 33 31 29 28 26 25 24 23 22 21 20 19 18 17 16 16 15 15 14 14 14 14 14 15 15 15 16 16 17 17 18 19 19 20 21 22 22
46 44 42 41 39 37 35 33 31 30 28 27 26 25 24 23 22 21 20 19 18 18 17 17 16 16 16 16 16 17 17 18 18 19 19 20 21 21 21 22 23 24 24
47 45 43 42 41 39 38 36 34 32 30 29 28 27 26 25 24 23 22 21 20 20 19 19 18 18 18 18 19 19 20 20 21 21 22 22 23 23 23 24 25 25 26
46 45 44 43 42 41 39 38 36 34 32 31 30 29 28 27 26 25 24 23 22 22 21 21 21 20 20 20 21 21 22 22 23 23 24 24 25 25 26 26 27 27 28
47 47 44 43 43 42 41 39 37 35 34 33 31 30 29 28 27 26 25 25 24 24 23 23 23 23 22 23 23 23 24 24 25 25 26 26 27 27 28 28 28 29 30
46 47 46 43 42 42 41 40 38 36 35 34 33 32 31 30 29 28 28 27 26 25 25 25 24 24 25 25 25 25 26 26 26 27 27 28 28 29 29 30 30 31 31
46 43 43 44 41 41 41 40 39 37 37 36 34 33 32 31 31 30 30 29 28 27 27 27 26 26 26 26 27 27 27 27 28 28 29 30 30 31 31 32 32 32 32
44 42 41 42 41 42 43 42 41 40 39 38 36 34 33 33 33 32 32 31 30 29 29 29 29 29 29 29 29 29 29 29 30 30 31 32 32 32 33 33 33 34 34
42 42 43 43 42 43 45 45 43 41 40 39 38 37 36 36 35 35 34 33 32 32 31 31 31 31 31 31 31 31 31 32 32 32 33 34 34 34 35 35 35 35 36
42 41 43 44 44 43 44 45 45 44 43 41 40 39 38 38 38 37 36 35 34 34 33 33 33 33 33 33 33 33 34 34 34 34 35 35 36 36 36 36 37 37 38
40 40 41 41 43 43 43 43 43 43 43 43 42 41 41 40 40 39 38 37 37 36 35 35 36 35 35 35 35 35 35 36 36 36 36 36 37 37 37 38 38 39 39
40 38 38 39 39 40 41 40 41 42 43 43 43 43 41 40 40 41 40 39 39 38 37 37 37 37 37 37 37 36 36 37 36 37 37 37 38 39 39 40 40 40 40
41 39 37 37 39 40 40 40 41 43 44 44 43 42 42 42 42 42 41 41 40 39 38 38 39 39 39 38 38 38 38 38 38 38 39 38 39 39 40 40 40 40 41
39 39 38 39 39 41 40 41 42 43 44 44 44 44 44 43 43 43 43 42 42 41 41 40 40 39 39 39 39 39 39 39 38 38 39 40 41 42 42 42 42 42 43
39 39 39 39 40 41 40 39 41 44 45 45 46 47 46 45 44 45 44 44 45 44 42 41 40 40 40 40 40 41 41 42 41 41 42 43 43 42 42 42 43 43 44
37 37 37 38 39 40 40 40 41 43 44 45 46 47 47 46 46 46 46 45 45 44 44 44 43 42 42 42 42 43 43 44 44 44 43 43 42 42 42 43 44 44 44
38 37 38 37 38 39 40 41 41 42 44 45 46 46 47 47 47 47 47 46 45 45 45 44 44 44 43 43 44 44 44 44 45 44 43 43 43 43 43 43 44 44 45
Wind_Direction
225 226 227 228 229 230 230 230 229 228 229 228 226 227 226 227 230 233 241 257 278 295 308 314 320 328 341 352 357 4 9 9 5 1 355 354 352 354 356 356 355 354 353
225 226 226 228 229 230 230 230 230 230 230 230 229 230 229 230 234 237 243 254 265 278 287 291 301 308 314 314 312 315 317 317 327 334 337 338 340 343 345 346 346 346 346
225 226 227 228 229 230 230 230 230 231 230 231 231 232 232 233 237 241 246 252 258 267 273 276 281 288 292 294 292 290 294 298 308 315 321 325 328 330 333 335 337 338 339
224 225 227 228 229 230 230 230 230 231 231 232 232 234 235 236 238 243 248 251 255 260 265 270 272 275 278 282 282 283 284 287 295 302 309 314 317 321 324 327 329 331 332
224 225 226 227 228 229 230 230 231 232 233 233 234 236 238 238 239 243 248 252 253 256 259 263 267 270 272 274 276 277 278 282 288 294 299 304 308 312 316 320 322 324 326
223 224 226 227 228 229 229 230 231 233 233 234 235 237 239 240 241 242 247 250 251 253 256 260 265 268 269 270 271 272 275 279 285 289 294 297 301 304 308 312 314 317 319
223 224 225 227 228 229 229 230 232 232 234 235 236 237 239 240 241 242 246 248 249 251 254 258 264 266 267 268 269 270 274 278 283 287 291 293 296 300 303 306 308 310 313
223 224 225 227 228 229 229 230 232 233 234 235 236 237 238 239 240 242 245 247 249 251 254 258 261 263 264 266 268 270 273 277 281 284 287 290 294 297 300 303 304 306 308
222 223 225 226 228 229 230 230 232 232 233 235 235 236 238 239 240 242 245 247 248 251 254 257 259 262 263 264 266 268 270 274 277 281 284 287 290 293 296 298 300 302 305
221 222 223 225 228 230 230 231 231 232 233 235 235 236 238 239 240 242 245 247 248 250 253 256 259 261 263 264 266 267 270 273 275 279 282 284 287 290 293 295 297 300 302
220 222 224 226 227 229 230 231 231 232 233 234 235 236 238 239 240 242 244 246 248 249 252 255 257 260 262 264 266 267 269 272 275 278 281 283 286 289 292 294 296 298 300
219 220 223 226 227 229 230 231 231 232 233 234 235 236 238 239 240 242 244 245 247 249 252 254 256 259 262 264 266 268 270 273 275 278 281 283 286 288 290 292 294 296 298
217 219 222 224 226 228 229 230 230 231 233 234 235 236 237 239 241 242 243 245 247 250 252 254 256 259 262 264 266 269 271 274 277 279 281 283 286 287 289 291 293 295 296
216 219 221 222 224 225 227 228 229 230 232 234 235 236 237 239 241 243 244 246 248 250 253 255 258 260 262 265 267 270 272 274 277 279 281 283 285 287 289 290 292 294 295
216 218 220 220 223 224 226 227 228 230 231 233 234 236 238 240 242 244 245 247 249 251 253 256 258 261 263 266 268 270 272 275 277 279 280 282 284 286 288 289 291 293 295
217 217 220 221 222 222 224 225 227 228 230 232 234 236 239 241 243 245 247 249 250 252 254 256 259 261 263 266 268 270 272 274 276 277 279 281 283 286 287 289 291 293 294
220 222 220 221 222 224 225 226 226 227 230 232 234 237 240 242 244 246 248 249 251 252 255 258 260 261 263 266 267 269 272 274 275 277 279 282 284 286 288 289 291 292 294
220 221 221 223 223 225 226 226 226 227 230 233 236 239 241 243 246 248 249 251 252 254 257 259 260 262 264 266 268 269 271 274 275 277 280 282 284 285 287 289 291 292 294
218 218 220 224 225 225 226 227 227 229 232 236 239 241 243 245 246 248 250 252 254 256 259 260 262 263 265 266 268 269 272 274 276 279 281 283 284 285 287 289 291 292 293
219 219 221 223 226 227 228 228 230 232 234 237 239 240 242 244 246 248 250 252 255 257 259 261 262 264 266 268 269 271 273 275 277 279 281 283 284 285 287 289 290 291 292
223 224 226 229 228 229 231 231 233 235 236 236 238 240 243 245 247 250 252 253 255 257 259 261 263 265 268 269 270 271 273 275 278 279 281 283 284 285 286 288 290 290 291
225 227 229 231 230 231 232 233 236 239 238 237 239 241 244 246 249 251 253 255 255 257 260 262 263 266 267 269 271 273 275 276 277 280 281 283 285 286 287 288 289 290 291
228 231 234 233 233 234 235 237 237 238 240 241 242 243 245 247 249 251 253 255 256 257 259 262 263 265 267 269 271 274 276 277 278 280 281 283 285 287 287 288 289 290 291
233 235 237 237 237 238 239 240 242 242 243 244 245 246 248 249 250 251 253 256 257 258 259 261 264 266 268 271 274 275 276 278 279 281 282 283 285 285 287 287 288 289 290
238 240 242 242 244 245 246 248 248 247 247 247 248 249 251 252 253 253 254 257 258 259 260 262 264 266 269 272 274 275 277 279 280 282 281 282 283 284 285 285 286 287 288
244 246 246 249 249 250 252 253 253 251 250 250 251 252 253 253 255 256 255 257 259 260 261 263 265 267 269 271 273 276 277 279 280 281 282 281 283 284 284 285 286 287 287
Height
5872 5874 5876 5878 5879 5880 5880 5881 5882 5882 5883 5883 5884 5884 5884 5884 5884 5884 5884 5884 5884 5884 5883 5883 5883 5882 5882 5882 5882 5881 5881 5881 5880 5880 5879 5879 5878 5877 5876 5875 5874 5872 5871
5868 5870 5873 5875 5876 5877 5878 5879 5880 5881 5881 5882 5882 5883 5883 5883 5883 5883 5883 5883 5883 5883 5883 5882 5882 5882 5882 5881 5881 5881 5881 5880 5880 5880 5879 5878 5877 5876 5875 5874 5873 5872 5870
5864 5866 5869 5871 5873 5875 5876 5877 5878 5879 5879 5880 5881 5881 5881 5882 5882 5882 5882 5882 5882 5882 5882 5881 5881 5881 5881 5881 5881 5880 5880 5880 5879 5879 5878 5878 5877 5876 5875 5873 5872 5871 5869
5859 5862 5865 5868 5870 5872 5873 5874 5875 5876 5877 5878 5879 5879 5880 5880 5880 5881 5881 5881 5881 5881 5881 5880 5880 5880 5880 5880 5880 5879 5879 5879 5878 5878 5877 5876 5876 5875 5874 5872 5871 5870 5868
5855 5858 5861 5863 5866 5868 5870 5871 5873 5874 5875 5876 5876 5877 5877 5878 5878 5879 5879 5879 5879 5879 5879 5879 5879 5879 5879 5879 5878 5878 5878 5877 5877 5876 5876 5875 5874 5873 5872 5871 5870 5868 5867
5849 5853 5856 5859 5862 5864 5866 5868 5869 5871 5872 5873 5874 5874 5875 5876 5876 5877 5877 5877 5877 5877 5877 5877 5878 5877 5877 5877 5877 5877 5876 5876 5876 5875 5874 5873 5873 5872 5871 5869 5868 5867 5865
5844 5847 5851 5854 5857 5860 5862 5864 5866 5867 5869 5870 5871 5872 5872 5873 5874 5874 5875 5875 5875 5876 5876 5876 5876 5876 5876 5876 5875 5875 5875 5874 5874 5873 5873 5872 5871 5870 5869 5867 5866 5864 5863
5838 5842 5845 5849 5852 5855 5857 5860 5862 5863 5865 5866 5868 5869 5869 5870 5871 5872 5872 5873 5873 5873 5873 5873 5874 5874 5874 5874 5873 5873 5873 5872 5872 5871 5870 5870 5869 5868 5866 5865 5864 5862 5860
5831 5836 5840 5843 5847 5850 5853 5855 5857 5859 5861 5863 5864 5865 5866 5867 5868 5869 5869 5870 5870 5871 5871 5871 5871 5871 5871 5871 5871 5871 5870 5870 5869 5869 5868 5867 5866 5865 5864 5862 5861 5859 5857
5824 5829 5834 5838 5841 5845 5848 5850 5853 5855 5857 5858 5860 5861 5862 5863 5864 5865 5866 5867 5867 5867 5868 5868 5868 5868 5868 5868 5868 5868 5868 5867 5866 5866 5865 5864 5863 5862 5860 5859 5857 5856 5854
5817 5823 5827 5831 5835 5839 5842 5845 5848 5850 5852 5854 5855 5857 5858 5859 5860 5861 5862 5863 5863 5864 5864 5865 5865 5865 5865 5865 5865 5864 5864 5864 5863 5862 5861 5861 5860 5858 5857 5855 5854 5852 5850
5810 5816 5821 5825 5829 5833 5836 5840 5842 5845 5847 5849 5851 5852 5854 5855 5856 5857 5858 5859 5859 5860 5860 5861 5861 5861 5861 5861 5861 5861 5860 5860 5859 5858 5858 5857 5856 5854 5853 5851 5849 5847 5846
5803 5808 5814 5819 5823 5827 5831 5834 5837 5840 5842 5844 5846 5847 5849 5850 5851 5852 5853 5854 5855 5855 5856 5856 5857 5857 5857 5857 5857 5857 5856 5856 5855 5854 5853 5852 5851 5850 5848 5846 5845 5843 5841
5795 5801 5806 5812 5816 5820 5824 5828 5831 5834 5836 5839 5841 5842 5844 5845 5846 5847 5848 5849 5850 5851 5851 5852 5852 5852 5853 5853 5852 5852 5852 5851 5850 5849 5848 5847 5846 5845 5843 5841 5839 5838 5835
5788 5794 5799 5804 5809 5813 5817 5821 5824 5828 5830 5833 5835 5837 5838 5840 5841 5842 5843 5844 5845 5846 5846 5847 5847 5847 5847 5847 5847 5847 5846 5846 5845 5844 5843 5842 5841 5839 5838 5836 5834 5832 5830
5782 5787 5792 5797 5801 5806 5810 5814 5818 5821 5824 5826 5829 5831 5832 5834 5836 5837 5838 5839 5840 5840 5841 5841 5842 5842 5842 5842 5842 5841 5841 5840 5839 5838 5837 5836 5834 5833 5831 5830 5828 5826 5824
5776 5781 5786 5789 5794 5799 5803 5807 5810 5814 5817 5820 5822 5824 5826 5828 5830 5831 5832 5833 5833 5834 5835 5835 5835 5836 5836 5836 5835 5835 5834 5834 5833 5831 5830 5829 5828 5826 5825 5823 5821 5819 5817
5769 5775 5779 5783 5787 5791 5795 5799 5803 5806 5810 5813 5815 5817 5819 5821 5823 5824 5825 5826 5827 5828 5828 5829 5829 5829 5829 5829 5829 5828 5828 5827 5826 5825 5823 5822 5821 5819 5818 5816 5815 5812 5810
5763 5768 5773 5777 5781 5784 5788 5791 5795 5798 5802 5805 5808 5810 5812 5814 5815 5817 5818 5819 5820 5821 5821 5822 5822 5822 5822 5822 5822 5821 5820 5820 5819 5818 5816 5815 5814 5812 5811 5809 5807 5805 5803
5756 5762 5766 5770 5774 5778 5781 5784 5787 5791 5794 5797 5800 5802 5804 5806 5808 5809 5811 5812 5813 5814 5814 5814 5814 5814 5814 5814 5814 5814 5813 5812 5811 5810 5809 5807 5806 5804 5803 5801 5799 5797 5795
5750 5755 5760 5764 5767 5771 5774 5777 5780 5783 5786 5789 5792 5794 5796 5798 5799 5801 5803 5804 5805 5806 5806 5806 5806 5806 5806 5806 5806 5805 5805 5804 5803 5802 5800 5799 5798 5796 5794 5793 5791 5789 5787
5743 5748 5753 5757 5761 5764 5767 5770 5773 5776 5778 5781 5783 5785 5787 5789 5791 5793 5794 5795 5796 5797 5798 5798 5798 5798 5798 5798 5798 5797 5797 5796 5794 5793 5792 5790 5789 5787 5786 5784 5782 5780 5778
5737 5742 5746 5750 5753 5756 5759 5762 5764 5767 5769 5772 5774 5776 5778 5780 5782 5784 5785 5786 5787 5788 5789 5789 5788 5789 5789 5789 5789 5788 5788 5787 5786 5785 5783 5781 5780 5778 5777 5775 5773 5771 5769
5730 5734 5738 5742 5745 5748 5750 5753 5756 5758 5761 5763 5765 5767 5769 5771 5772 5774 5775 5776 5778 5779 5779 5779 5779 5779 5780 5780 5779 5779 5778 5777 5776 5776 5775 5773 5771 5769 5767 5765 5763 5761 5759
5724 5727 5731 5734 5737 5740 5742 5745 5747 5749 5752 5754 5756 5758 5760 5762 5763 5764 5765 5766 5767 5769 5769 5770 5770 5770 5770 5770 5770 5769 5768 5767 5766 5765 5765 5763 5761 5759 5757 5755 5753 5751 5749
5718 5721 5724 5726 5729 5732 5734 5736 5738 5740 5742 5743 5745 5747 5749 5751 5752 5754 5755 5756 5757 5758 5759 5759 5760 5760 5760 5760 5759 5759 5758 5757 5755 5754 5754 5752 5751 5749 5747 5745 5743 5741 5738